www.pogodaiklimat.ru
ПОГОДА в Энаротали
Время
(UTC), дата
03 13.09
06 13.09
09 13.09
12 13.09
21 13.09
00 14.09
03 14.09
06 14.09
09 14.09
12 14.09
21 14.09
00 15.09
03 15.09
06 15.09
09 15.09
12 15.09
21 15.09
00 16.09
03 16.09
06 16.09
09 16.09
12 16.09
21 16.09
00 17.09
03 17.09
06 17.09
09 17.09
12 17.09
21 17.09
00 18.09
03 18.09
06 18.09
09 18.09
12 18.09
21 18.09
00 19.09
03 19.09
06 19.09
09 19.09
12 19.09
21 19.09
Ветер
(напр.,м/с)
Видим. Явления Облачность Т
(С)
Тd
(С)
f
(%)
Тe
(С)
Тes
(С)
Комфортность P
(гПа)
Po
(гПа)
Тmin
(С)
Tmax
(С)
R
(мм)
R24
(мм)
S
(см)
штиль 0 6000 м в посл. час дождь 10/4 240 м
[Cu Sc As op]
+20.8 +17.5 81 +24 +28 комфорт 1009.2 824.2 0.8
СВ 2 7000 м в посл. час дождь 9/4 240 м
[Cu Sc Ac As Ci sp]
+22.2 +16.7 71 +27 +30 душно 1006.7 822.1 0.0
В 2 7000 м слаб. дождь 9/4 240 м
[Cu Sc Ac As Ci sp]
+21.0 +16.4 75 +25 +25 комфорт 1008.3 823.4 0.0
штиль 0 5000 м осадки на расстоянии 9/4 240 м
[Cu Sc Ac As Ci sp]
+19.0 +16.2 84 +20 +20 1009.7 824.6 +23.4 1
штиль 0 5000 м осадки на расстоянии 10/4 240 м
[Cu Sc As op]
+17.0 +15.4 90 +17 +17 1008.7 823.8 0.2
штиль 0 5000 м осадки на расстоянии 10/4 240 м
[Cu Sc As op]
+19.0 +16.2 84 +20 +22 1010.3 825.1 +16.6 2
штиль 0 7000 м слаб. дождь {морось} 9/4 240 м
[Cu Sc Ac As Ci sp]
+21.4 +16.5 74 +25 +35 комфорт 1008.3 823.5 0.0
штиль 0 7000 м мгла {дождь} 9/4 240 м
[Cu Sc Ac As Ci sp]
+21.8 +15.6 68 +25 +30 комфорт 1006.2 821.7 0.2
штиль 0 7000 м слаб. морось 9/4 240 м
[Cu Sc Ac As Ci sp]
+20.4 +16.0 76 +23 +23 комфорт 1007.7 822.9 0.0
штиль 0 5000 м слаб. дождь {морось} 9/4 240 м
[Cu Sc Ac As Ci sp]
+18.2 +16.0 87 +19 +19 1010.4 825.1 +23.0 5
штиль 0 6000 м мгла {дождь} 6/4 240 м
[Cu Sc Ac lent Ci sp]
+16.4 +15.1 92 +16 +16 1008.8 823.9 1
ЮЗ 2 8000 м 5/3 240 м
[Cu med, cong Ac trans Ci sp]
+19.4 +15.6 79 +22 +29 комфорт 1010.4 825.1 +15.8 6
штиль 0 8000 м мгла 8/4 240 м
[Cu med, cong Ac lent Ci sp]
+23.0 +16.2 66 +28 +40 душно 1008.4 823.6
штиль 0 5000 м дождь {морось} 10/4 240 м
[Cu Sc As op]
+21.0 +17.4 80 +25 +26 комфорт 1007.0 822.4 8
штиль 0 3000 м дождь 10/4 240 м
[Cu Sc As op]
+18.8 +16.3 85 +20 +20 1008.9 823.9 11
штиль 0 3000 м в посл. час дождь 10/4 240 м
[Cu Sc As op]
+17.6 +16.4 93 +18 +18 1010.6 825.3 +23.4 4
штиль 0 8000 м мгла 6/5 120 м
[Cu med, cong Ac trans Ci sp]
+15.2 +13.2 88 +15 +15 1009.9 824.8
штиль 0 9000 м 4/3 240 м
[Cu med, cong Ac trans Ci sp]
+18.6 +15.1 80 +19 +30 1011.4 825.9 +15.0 24
ЮЗ 2 9000 м 6/4 240 м
[Cu med, cong Ac lent Ci sp]
+21.4 +15.1 67 +25 +35 комфорт 1009.0 824.0
З 2 7000 м в посл. час дождь 9/4 240 м
[Cu med, cong Ac und Ci sp]
+22.0 +18.4 80 +27 +31 душно 1007.0 822.4 0.2
штиль 0 5000 м осадки на расстоянии 10/4 240 м
[Cu Sc As op]
+20.0 +16.6 81 +22 +22 комфорт 1008.5 823.6
штиль 0 5000 м осадки на расстоянии 10/4 240 м
[Cu Sc As op]
+18.8 +16.3 85 +20 +20 1010.8 825.5 +23.6 0.5
штиль 0 5000 м осадки на расстоянии 10/4 210 м
[Cu Sc As op]
+17.2 +15.6 90 +17 +17 1010.2 825.0 7
штиль 0 4000 м осадки на расстоянии 10/6 210 м
[Cu Sc As op]
+18.8 +16.3 85 +20 +21 1011.7 826.2 +17.0 8
ЮЗ 3 7000 м мгла 6/4 240 м
[Cu Sc Ac As Ci sp]
+21.8 +15.9 69 +25 +35 комфорт 1009.2 824.2
штиль 0 4000 м слаб. дождь 10/4 240 м
[Cu Sc As op]
+20.4 +17.0 81 +23 +25 комфорт 1007.7 822.9 3
штиль 0 500 м сильн. дождь 10/5 210 м
[Cb cap As op]
+18.2 +16.6 90 +19 +19 1009.9 824.7 35
штиль 0 500 м в посл. час дождь 10/5 210 м
[Cb cap As op]
+17.4 +15.8 90 +17 +17 1010.9 825.6 +22.8 5
штиль 0 5000 м осадки на расстоянии 10/8 150 м
[Cu Sc As op]
+15.8 +14.5 92 +16 +16 1011.1 825.7
штиль 0 6000 м мгла 9/4 240 м
[Cu Sc Ac cuf Ci sp]
+18.0 +15.8 87 +18 +24 1012.7 827.1 +15.6 43
ЮЗ 2 7000 м мгла 9/4 240 м
[Cu Sc Ac cuf Ci sp]
+21.0 +15.4 70 +25 +33 комфорт 1010.8 825.5
штиль 0 8000 м слаб. дождь 9/5 210 м
[Cb calv Ac cuf Ci sp]
+20.6 +17.2 81 +24 +28 комфорт 1008.7 823.7 0.8
штиль 0 4000 м осадки на расстоянии 9/5 210 м
[Cb calv Ac cuf Ci sp]
+19.0 +16.5 85 +20 +20 1009.7 824.6 8
штиль 0 4000 м осадки на расстоянии 9/4 240 м
[Cu Sc Ac cuf Ci sp]
+17.6 +15.7 89 +18 +18 1011.2 825.8 +22.6 8
штиль 0 7000 м мгла 8/4 240 м
[Cu med, cong Ac lent Ci sp]
+15.2 +14.2 94 +15 +15 1010.7 825.4
штиль 0 9000 м 6/3 240 м
[Cu Sc Ac lent Ci sp]
+18.6 +15.8 84 +19 +28 1011.7 826.2 +15.2 9
ЮЗ 2 9000 м 6/4 240 м
[Cu Sc Ac lent Ci sp]
+22.8 +16.7 68 +27 +38 душно 1009.0 824.0
штиль 0 6000 м слаб. дождь 9/4 240 м
[Cu Sc Ac As Ci fib]
+22.4 +17.2 72 +27 +32 душно 1007.1 822.5 0.0
штиль 0 6000 м слаб. дождь 9/4 240 м
[Cu Sc Ac As Ci fib]
+20.2 +16.8 81 +23 +23 комфорт 1008.3 823.5 0.0
штиль 0 3000 м слаб. дождь 10/5 210 м
[Cb cap As op]
+18.2 +16.0 87 +19 +19 1010.2 825.0 +24.6 6
штиль 0 8000 м мгла {дождь} 6/5 120 м
[Cu Sc Ac trans Ci sp]
+16.2 +14.6 90 +16 +16 1009.3 824.3 0.8
Местоположение метеостанции Энаротали (Индонезия): широта -3.92 долгота 136.37 высота над уровнем моря 1770 м.
В архиве по умолчанию представлена погода в Энаротали за последнюю неделю. Архивные данные за месяц целиком и за предыдущие месяцы, начиная с января 2011 года, Вы можете получить, выбрав интересующий диапазон дат из раскрывающегося списка и нажав кнопку "Найти!".
*Определитесь, кто Вы:
Внимание! Время в таблицах - всемирное. Для получения местного времени необходимо прибавить поправку, которая равна 9 ч.
Смотрите также архив погоды в соседних городах и на ближайших метеорологических станциях:
Партнеры нашего сайта:      
Пояснения к столбцам:
  • Ветер - указаны скорость ветра в м/с - средняя за 10 мин, порывы в срок и между сроками (в фигурных скобках) и направление, откуда дует ветер: С - северный,
  • СВ - северо-восточный, В - восточный, ЮВ - юго-восточный, Ю - южный, ЮЗ - юго-западный, З - западный, СЗ - северо-западный.
  • Видимость - горизонтальная дальность видимости в метрах или километрах. При видимости от 1 до 10 км при отсутствии осадков обычно наблюдается дымка, при ухудшении видимости до 1 км и менее - туман. В сухую погоду видимость может ухудшаться дымом, пылью или мглою.
  • Явления - указаны атмосферные явления, наблюдавшиеся в срок или в последний час перед сроком; фигурными скобками обозначены явления, наблюдавшиеся между сроками (за 1-3 часа до срока); квадратными скобками обозначены град или гололедные отложения с указанием их диаметра в мм.
  • Облачность - указаны через наклонную черту общая и нижняя облачность в баллах и высота нижней границы облаков в метрах; квадратными скобками обозначены формы облаков: Ci - перистые, Cs - перисто-слоистые, Cc - перисто-кучевые, Ac - высококучевые, As - высокослоистые, Sc - слоисто-кучевые, Ns - слоисто-дождевые, Cu - кучевые, Cb - кучево-дождевые. Подробнее классификацию облаков см. в Атласе облаков (PDF).
  • T - Температура воздуха - температура, измеренная на высоте 2 м над землей.
  • Td - Температура точки росы - температура, при понижении до которой содержащийся в воздухе водяной пар достигнет насыщения.
  • f - Относительная влажность воздуха - влажноcть воздуха, измеренная на высоте 2 м над землей.
  • Te - Эффективная температура - температура, которую ощущает одетый по сезону человек в тени. Характеристика душности погоды. При расчете учитывается влияние влажности воздуха и скорости ветра на теплоощущения человека.
  • Tes - Эффективная температура на солнце - температура, которую ощущает человек, с поправкой на солнечный нагрев. Характеристика знойности погоды. Зависит от высоты солнца над горизонтом, облачности и скорости ветра. Ночью, в пасмурную погоду, а также при ветре 12 м/с и более поправка равна нулю.
  • P - Атмосферное давление - приведенное к уровню моря атмосферное давление.
  • Po - Атмосферное давление - измеренное на уровне метеостанции атмосферное давление.
  • Tmin - Минимальная температура - минимум температуры воздуха на высоте 2 м над землей.
  • Tmax - Максимальная температура - максимум температуры воздуха на высоте 2 м над землей.
  • R - Количество осадков - Количество выпавших осадков за период времени, мм. При наведении курсора мыши на число - период времени, за который выпало указанное количество осадков.
  • R24 - Количество осадков - Количество выпавших осадков за 24 часа, мм.
  • S - Снежный покров - Высота снежного покрова, см. При наведении курсора мыши на число - состояние снежного покрова и степень покрытия местности в баллах.